Tracking 19651 objects as of 23-Apr-2019
HD Live streaming from Space Station
objects crossing your sky now

NATO 4A R/B(PAM-D)

Track NATO 4A R/B(PAM-D) now!


NORAD ID: 21049
Int'l Code: 1991-001C
Perigee: 820.3 km
Apogee: 35,413.7 km
Inclination: 25.6 °
Period: 635.6 minutes
Semi major axis: 24488 km
RCS: 2.9861 m2 (large)
Launch date: January 8, 1991
Source: United States (US)
Launch site: AIR FORCE EASTERN TEST RANGE (AFETR)

Note: This is a ROCKET BODY
aabbcc
Your satellite tracking list
Your tracking list is empty




NASA's NSSDC Master Catalog

Two Line Element Set (TLE):
1 21049U 91001C   19113.07811729 -.00000050  00000-0  19946-2 0  9994
2 21049  25.6279 123.2639 7063323 192.3478 159.1441  2.26554311234196
Source of the keplerian elements: AFSPC